Weather History for KGEY - November, 2013

Change the Weather History Date:

Tuesday, November 26, 2013

  Actual Average Record
Temperature  
Mean Temperature 26 °F 24 °F  
Max Temperature 40 °F 36 °F 64 °F (1998)
Min Temperature 11 °F 12 °F -12 °F (2002)
Degree Days  
Heating Degree Days 39 41  
Month to date heating degree days 861 865  
Since 1 July heating degree days 1670 1687  
Cooling Degree Days 0 0  
Month to date cooling degree days 0 0  
Year to date cooling degree days 1005 669  
Moisture  
Dew Point 19 °F    
Average Humidity 73    
Maximum Humidity 92    
Minimum Humidity 54    
Precipitation  
Precipitation 0.00 in 0.01 in 0.22 in (2005)
Month to date precipitation T 0.26  
Year to date precipitation 4.85 7.19  
Sea Level Pressure  
Sea Level Pressure 30.45 in    
Wind  
Wind Speed 1 mph (SSE)    
Max Wind Speed 7 mph    
Max Gust Speed 9 mph    
Visibility 10 miles    
Events      
T = Trace of Precipitation, MM = Missing Value Source: NWS Daily Summary

Daily Weather History Graph

Daily Weather History Graph

Search for Another Location

Airport or City:

Trip Planner

Search our weather history database for the weather conditions in past years. The results will help you decide how hot, cold, wet, or windy it might be!

Date:

Astronomy

Nov. 26, 2013 Rise Set
Actual Time 7:23 AM MST 4:35 PM MST
Civil Twilight 6:50 AM MST 5:08 PM MST
Nautical Twilight 6:14 AM MST 5:44 PM MST
Astronomical Twilight 5:39 AM MST 6:19 PM MST
Moon 12:14 AM MST (11/26) 12:58 PM MST (11/26)
Length of Visible Light 10h 17m
Length of Day
9h 12m
Last Quarter, 40% of the Moon is Illuminated
Nov 26
Last Quarter
Dec 2
New
Dec 9
First Quarter
Dec 17
Full
Dec 25
Last Quarter

Hourly Weather History & Observations

Time (MST) Temp. Windchill Dew Point Humidity Pressure Visibility Wind Dir Wind Speed Gust Speed Precip Events Conditions
12:53 AM 12.0 °F - 10.0 °F 92% 30.55 in 10.0 mi Calm Calm - N/A   Clear
1:53 AM 14.0 °F - 10.9 °F 88% 30.53 in 10.0 mi Calm Calm - N/A   Overcast
2:53 AM 15.1 °F 7.7 °F 12.0 °F 88% 30.53 in 10.0 mi NNW 4.6 mph - N/A   Overcast
3:53 AM 16.0 °F - 12.9 °F 88% 30.53 in 10.0 mi Calm Calm - N/A   Overcast
4:53 AM 17.1 °F - 15.1 °F 92% 30.53 in 10.0 mi Calm Calm - N/A   Overcast
5:53 AM 17.1 °F - 14.0 °F 88% 30.55 in 10.0 mi Calm Calm - N/A   Overcast
6:53 AM 17.1 °F - 14.0 °F 88% 30.55 in 10.0 mi Calm Calm - N/A   Overcast
7:53 AM 17.1 °F 11.7 °F 15.1 °F 92% 30.56 in 10.0 mi SE 3.5 mph - N/A   Overcast
8:53 AM 19.0 °F - 16.0 °F 88% 30.57 in 10.0 mi Calm Calm - N/A   Mostly Cloudy
9:53 AM 24.1 °F - 19.0 °F 81% 30.56 in 10.0 mi Calm Calm - N/A   Overcast
10:53 AM 27.0 °F 23.0 °F 19.9 °F 75% 30.53 in 10.0 mi SW 3.5 mph - N/A   Clear
11:53 AM 32.0 °F - 21.9 °F 66% 30.49 in 10.0 mi Calm Calm - N/A   Clear
12:53 PM 36.0 °F 33.3 °F 23.0 °F 59% 30.45 in 10.0 mi Variable 3.5 mph - N/A   Clear
1:53 PM 37.0 °F - 24.1 °F 59% 30.41 in 10.0 mi Calm Calm - N/A   Clear
2:53 PM 39.0 °F - 25.0 °F 57% 30.39 in 10.0 mi Calm Calm - N/A   Clear
3:53 PM 37.9 °F - 25.0 °F 60% 30.37 in 10.0 mi Calm Calm - N/A   Clear
4:53 PM 33.1 °F - 24.1 °F 70% 30.37 in 10.0 mi Calm Calm - N/A   Clear
5:53 PM 32.0 °F - 24.1 °F 73% 30.36 in 10.0 mi Calm Calm - N/A   Clear
6:53 PM 26.1 °F 19.4 °F 21.9 °F 84% 30.37 in 10.0 mi SE 5.8 mph - N/A   Clear
7:53 PM 27.0 °F 21.6 °F 23.0 °F 85% 30.36 in 10.0 mi SE 4.6 mph - N/A   Clear
8:53 PM 23.0 °F - 19.9 °F 88% 30.37 in 10.0 mi Calm Calm - N/A   Clear
9:53 PM 21.9 °F - 19.0 °F 89% 30.35 in 10.0 mi Calm Calm - N/A   Clear
10:53 PM 19.0 °F - 17.1 °F 92% 30.33 in 10.0 mi Calm Calm - N/A   Clear
11:53 PM 21.0 °F - 19.0 °F 92% 30.30 in 10.0 mi Calm Calm - N/A   Clear